(219911) = 2002 FD25

Discovered at Palomar on 2002-03-19 by NEAT.

Orbit

Orbit type: Main Belt

Note: WebGL enabled browser required.

epoch2024-03-31.0
epoch JD2460400.5
perihelion date2019-12-25.42930
perihelion JD2458842.92931
argument of perihelion (°)239.75042
ascending node (°)17.10709
inclination (°)27.16703
eccentricity0.2134880
perihelion distance (AU)2.4613512
Tisserand w.r.t. Jupiter3.0
ΔV w.r.t. Earth (km/sec)12.9
semimajor axis (AU)3.1294516
mean anomaly (°)277.29976
mean daily motion (°/day)0.17803350
aphelion distance (AU)3.798
period (years)5.54
P-vector [x]-0.25540661
P-vector [y]-0.65299398
P-vector [z]-0.71299812
Q-vector [x]0.95745947
Q-vector [y]-0.06838308
Q-vector [z]-0.28034820
absolute magnitude14.89
phase slope0.15
uncertainty0
referenceE2024-H05
observations used600
oppositions15
arc length (days)8089
first opposition used2002
last opposition used2024
residual rms (arc-secs)0.71
perturbers coarse indicatorM-v
perturbers precise indicator003Ek
first observation date used2002-02-21.0
last observation date used2024-04-15.0
computer nameMPCLINUX
JD of orbit computation2456406.183653
perihelion JD uncertainty (days)1.7772E-04
argument of perihelion uncertainty (°)2.9202E-05
ascending node uncertainty (°)1.2643E-05
inclination uncertainty (°)1.1038E-05
eccentricity uncertainty 6.1321E-08
perihelion distance uncertainty (AU)2.0809E-07
Minimum Orbit Intersection Distances (in AU)
for orbit epoch: 2460400.5, reference: E2024-H05
Mercury2.02871
Venus1.81025
Earth1.54912
Mars1.02893
Jupiter1.54809
Saturn5.72044
Uranus15.4644
Neptune26.3041

Observations

588 total observations over interval: 2002 02 21.36147 – 2024 03 11.258102
These data are available for download (format description).

Date (UT) J2000 RA J2000 Dec Magn Location Ref
2002 02 21.36147 11 37 24.26 +30 08 47.2 19.4   704 – Lincoln Laboratory ETS, New Mexico MPS 57356
2002 02 21.38449 11 37 22.99 +30 08 50.6 19.5   704 – Lincoln Laboratory ETS, New Mexico MPS 57356
2002 02 21.40575 11 37 21.64 +30 08 54.6 19.6   704 – Lincoln Laboratory ETS, New Mexico MPS 57356
2002 02 21.42439 11 37 20.52 +30 08 56.7 19.9   704 – Lincoln Laboratory ETS, New Mexico MPS 57356
2002 03 19.35977 11 09 05.27 +30 13 42.7 19.3   644 – Palomar Mountain/NEAT MPS 55067
2002 03 19.38074 11 09 03.86 +30 13 39.1 19.8   644 – Palomar Mountain/NEAT MPS 55067
2002 03 19.40403 11 09 02.31 +30 13 34.8 19.6   644 – Palomar Mountain/NEAT MPS 55067
2002 03 21.26506 11 07 03.35 +30 07 51.3 19.6   704 – Lincoln Laboratory ETS, New Mexico MPS 55067
2002 03 21.29108 11 07 01.75 +30 07 45.4 19.5   704 – Lincoln Laboratory ETS, New Mexico MPS 55067
2002 03 21.30362 11 07 00.91 +30 07 43.0 19.4   704 – Lincoln Laboratory ETS, New Mexico MPS 55067
2002 03 31.36095 10 57 10.22 +29 22 19.5 20.5   644 – Palomar Mountain/NEAT MPS 55067
2002 03 31.38188 10 57 09.05 +29 22 12.7 20.0   644 – Palomar Mountain/NEAT MPS 55067
2002 03 31.40280 10 57 07.91 +29 22 05.5 20.7   644 – Palomar Mountain/NEAT MPS 55067
2002 04 04.27809 10 53 50.68 +28 58 35.3 19.2   704 – Lincoln Laboratory ETS, New Mexico MPS 55067
2002 04 04.28964 10 53 50.04 +28 58 29.8 19.1   704 – Lincoln Laboratory ETS, New Mexico MPS 55067
2002 04 04.30199 10 53 49.46 +28 58 25.6 19.6   704 – Lincoln Laboratory ETS, New Mexico MPS 55067
2002 04 04.31390 10 53 48.87 +28 58 20.9 19.8   704 – Lincoln Laboratory ETS, New Mexico MPS 55067
2002 04 04.32579 10 53 48.24 +28 58 15.8 19.4   704 – Lincoln Laboratory ETS, New Mexico MPS 55067
2004 10 07.25554 00 50 45.39 +02 01 29.4 21.1 R 683 – Goodricke-Pigott Observatory, Tucson MPS 116591
2004 10 07.26892 00 50 44.62 +02 01 28.1 21.2 R 683 – Goodricke-Pigott Observatory, Tucson MPS 116591
2004 10 07.28219 00 50 43.70 +02 01 31.5 19.2   704 – Lincoln Laboratory ETS, New Mexico MPS 116591
2004 10 07.28230 00 50 43.68 +02 01 29.9 21.2 R 683 – Goodricke-Pigott Observatory, Tucson MPS 116591
2004 10 07.29363 00 50 42.99 +02 01 31.1 20.1   704 – Lincoln Laboratory ETS, New Mexico MPS 116591
2004 10 07.30463 00 50 42.36 +02 01 31.4 20.0   704 – Lincoln Laboratory ETS, New Mexico MPS 116591
2004 10 07.31573 00 50 41.58 +02 01 31.8 20.1   704 – Lincoln Laboratory ETS, New Mexico MPS 116591
2004 10 08.22306 00 49 47.27 +02 01 58.4 19.4 R 699 – Lowell Observatory-LONEOS MPS 116591
2004 10 08.24333 00 49 45.87 +02 01 58.0   699 – Lowell Observatory-LONEOS MPS 116591
2004 10 08.26361 00 49 44.74 +02 02 00.8   699 – Lowell Observatory-LONEOS MPS 116591
2004 10 08.28386 00 49 43.54 +02 02 00.1   699 – Lowell Observatory-LONEOS MPS 116591
2004 10 10.24529 00 47 46.25 +02 03 04.3 21.3 R 683 – Goodricke-Pigott Observatory, Tucson MPS 116591
2004 10 10.25867 00 47 45.56 +02 03 06.4 21.6 R 683 – Goodricke-Pigott Observatory, Tucson MPS 116591
2004 10 10.27202 00 47 44.64 +02 03 06.5 21.4 R 683 – Goodricke-Pigott Observatory, Tucson MPS 116591
2004 10 12.16784 00 45 52.51 +02 04 15.2 19.9 V 691 – Steward Observatory, Kitt Peak-Spacewatch MPS 116591
2004 10 12.19503 00 45 50.89 +02 04 16.2 19.9 V 691 – Steward Observatory, Kitt Peak-Spacewatch MPS 116591
2004 10 12.22194 00 45 49.27 +02 04 17.2 19.7 V 691 – Steward Observatory, Kitt Peak-Spacewatch MPS 116591
2004 10 21.20268 00 37 22.17 +02 11 48.4 19.6   704 – Lincoln Laboratory ETS, New Mexico MPS 117590
2004 10 21.21454 00 37 21.52 +02 11 48.4 20.1   704 – Lincoln Laboratory ETS, New Mexico MPS 117590
2004 10 21.22644 00 37 20.92 +02 11 49.9 19.4   704 – Lincoln Laboratory ETS, New Mexico MPS 117590
2004 10 21.23829 00 37 20.23 +02 11 49.6 20.0   704 – Lincoln Laboratory ETS, New Mexico MPS 117590
2004 10 21.25016 00 37 19.55 +02 11 50.6 20.2   704 – Lincoln Laboratory ETS, New Mexico MPS 117590
2007 12 05.49538 12 55 21.24 +05 42 06.2 20.7 V 691 – Steward Observatory, Kitt Peak-Spacewatch MPS 229716
2007 12 05.50794 12 55 22.02 +05 41 59.7 20.7 V 691 – Steward Observatory, Kitt Peak-Spacewatch MPS 229716
2007 12 05.52050 12 55 22.82 +05 41 53.0 20.9 V 691 – Steward Observatory, Kitt Peak-Spacewatch MPS 229716
2007 12 15.52668 13 05 25.48 +04 16 50.8 20.4 V 691 – Steward Observatory, Kitt Peak-Spacewatch MPS 231300
2007 12 15.53922 13 05 26.20 +04 16 45.0 20.6 V 691 – Steward Observatory, Kitt Peak-Spacewatch MPS 231300
2007 12 15.55177 13 05 26.91 +04 16 38.6 20.6 V 691 – Steward Observatory, Kitt Peak-Spacewatch MPS 231300
2007 12 20.52666 13 10 06.68 +03 36 16.3 20.4 V 691 – Steward Observatory, Kitt Peak-Spacewatch MPS 231730
2007 12 20.53923 13 10 07.36 +03 36 09.8 20.6 V 691 – Steward Observatory, Kitt Peak-Spacewatch MPS 231730
2007 12 20.55180 13 10 08.03 +03 36 04.0 21.1 V 691 – Steward Observatory, Kitt Peak-Spacewatch MPS 231730
2008 03 08.38619 13 29 19.60 -04 01 28.4   691 – Steward Observatory, Kitt Peak-Spacewatch MPS 242009
2008 03 08.40386 13 29 18.84 -04 01 32.8   691 – Steward Observatory, Kitt Peak-Spacewatch MPS 242009
2008 03 08.42153 13 29 18.17 -04 01 38.6   691 – Steward Observatory, Kitt Peak-Spacewatch MPS 242009
2008 03 12.39171 13 26 21.48 -04 16 35.1 19.5 V 691 – Steward Observatory, Kitt Peak-Spacewatch MPS 243518
2008 03 12.40944 13 26 20.60 -04 16 39.1 19.2 V 691 – Steward Observatory, Kitt Peak-Spacewatch MPS 243518
2008 03 12.42715 13 26 19.73 -04 16 43.0 19.1 V 691 – Steward Observatory, Kitt Peak-Spacewatch MPS 243518
2008 03 16.36303 13 23 01.57 -04 31 06.1   691 – Steward Observatory, Kitt Peak-Spacewatch MPS 243518
2008 03 16.38076 13 23 00.59 -04 31 09.8   691 – Steward Observatory, Kitt Peak-Spacewatch MPS 243518
2008 03 16.39849 13 22 59.60 -04 31 13.7   691 – Steward Observatory, Kitt Peak-Spacewatch MPS 243518
2008 03 28.31778 13 11 02.36 -05 12 47.3 18.6 V G96 – Mt. Lemmon Survey MPS 243982
2008 03 28.32443 13 11 01.93 -05 12 48.5 18.6 V G96 – Mt. Lemmon Survey MPS 243982
2008 03 28.33106 13 11 01.46 -05 12 50.0 18.5 V G96 – Mt. Lemmon Survey MPS 243982
2008 03 28.33776 13 11 01.03 -05 12 51.3 18.5 V G96 – Mt. Lemmon Survey MPS 243982
2008 03 29.36150 13 09 52.88 -05 16 19.7 18.8   704 – Lincoln Laboratory ETS, New Mexico MPS 244595
2008 03 29.37345 13 09 52.20 -05 16 20.4 20.0   704 – Lincoln Laboratory ETS, New Mexico MPS 244595
2008 03 29.38539 13 09 51.16 -05 16 24.9 19.4   704 – Lincoln Laboratory ETS, New Mexico MPS 244595
2008 03 29.39742 13 09 50.43 -05 16 27.3 18.7   704 – Lincoln Laboratory ETS, New Mexico MPS 244595
2008 03 29.40936 13 09 49.61 -05 16 29.5 18.7   704 – Lincoln Laboratory ETS, New Mexico MPS 244595
2008 04 07.30240 12 59 34.39 -05 46 32.0 18.0   704 – Lincoln Laboratory ETS, New Mexico MPS 245684
2008 04 07.31407 12 59 33.56 -05 46 33.9 18.7   704 – Lincoln Laboratory ETS, New Mexico MPS 245684
2008 04 07.32550 12 59 32.70 -05 46 36.7 18.8   704 – Lincoln Laboratory ETS, New Mexico MPS 245684
2008 04 07.33695 12 59 31.88 -05 46 38.8 18.8   704 – Lincoln Laboratory ETS, New Mexico MPS 245684
2008 04 07.34840 12 59 31.03 -05 46 40.9 18.8   704 – Lincoln Laboratory ETS, New Mexico MPS 245684
2008 04 09.18123 12 57 21.93 -05 52 55.1 19.1 V 691 – Steward Observatory, Kitt Peak-Spacewatch MPS 245684
2008 04 09.19886 12 57 20.67 -05 52 58.9 19.1 V 691 – Steward Observatory, Kitt Peak-Spacewatch MPS 245684
2008 04 09.21649 12 57 19.40 -05 53 02.6 18.8 V 691 – Steward Observatory, Kitt Peak-Spacewatch MPS 245684
2008 04 13.23570 12 52 36.80 -06 06 54.8 18.1   704 – Lincoln Laboratory ETS, New Mexico MPS 246697
2008 04 13.24670 12 52 36.03 -06 06 57.2 18.6   704 – Lincoln Laboratory ETS, New Mexico MPS 246697
2008 04 13.25773 12 52 35.25 -06 06 59.2 19.0   704 – Lincoln Laboratory ETS, New Mexico MPS 246697
2008 04 13.26874 12 52 34.44 -06 07 01.2 18.9   704 – Lincoln Laboratory ETS, New Mexico MPS 246697
2008 04 13.27975 12 52 33.66 -06 07 03.4 18.8   704 – Lincoln Laboratory ETS, New Mexico MPS 246697
2008 04 28.29941 12 36 19.08 -07 02 51.2 18.6   704 – Lincoln Laboratory ETS, New Mexico MPS 248087
2008 04 28.31003 12 36 18.45 -07 02 54.5 18.5   704 – Lincoln Laboratory ETS, New Mexico MPS 248087
